[[{"header":{"parameterUnit":"m.s-1","parameterCategory":1,"la1":30.2991,"la2":30.254,"lo1":-89.0895,"lo2":-89.0444,"dy":0.0017,"dx":0.0017,"nx":28,"ny":28,"refTime":"2023-10-24T21:00:00:Z","depth":0,"parameterNumber":2,"parameterNumberName":"U-component_of_WINDS"},"data":[0,0,0,0,0,0,0,0,0,0,0,0,0,0,0,0,0,0,0,0,0,0,0,0,0,0,0,0,0,0,0,0,0,0,0,0,0,0,0,0,0,0,0,0,0,0,0,0,0,0,0,0,0,0,0,0,0,0,-6.8237,-6.8238,0,-6.8309,-6.831,-6.8311,-6.8195,-6.8191,-6.8187,-6.8184,-6.8254,-6.8259,-6.8264,0,0,0,0,0,0,0,0,0,0,0,0,0,-6.7998,-6.8003,-6.8237,-6.8238,-6.8239,-6.8309,-6.831,-6.8311,-6.8196,-6.8191,-6.8186,-6.8182,-6.8252,-6.8258,-6.8265,0,0,0,0,0,0,0,0,0,0,0,0,0,-6.8089,-6.8005,-6.8237,-6.819,-6.8187,-6.8309,-6.831,-6.8311,-6.8197,-6.8191,-6.8185,-6.818,-6.825,-6.8258,-6.8266,-6.8436,0,0,-6.8291,-6.8295,0,0,0,0,0,0,0,0,-6.8084,-6.8098,-6.8196,-6.8194,-6.819,-6.8237,-6.8251,-6.8353,-6.8199,-6.8193,-6.8184,-6.8177,-6.8253,-6.826,-6.8287,-6.8439,-6.8442,-6.8292,-6.8297,-6.8301,-6.8303,0,0,0,0,0,0,0,-6.8078,-6.8094,-6.8266,-6.8198,-6.8194,-6.8165,-6.8171,-6.827,-6.8255,-6.8193,-6.8185,-6.8195,-6.825,-6.8279,-6.8288,-6.8443,-6.8292,-6.8299,-6.8304,-6.8308,-6.874,-6.8746,0,0,0,0,0,0,-6.8078,-6.809,-6.8263,-6.8268,-6.8122,-6.8174,-6.8181,-6.8228,-6.8254,-6.8252,-6.82,-6.819,-6.8268,-6.8278,-6.829,-6.8489,-6.8301,-6.8308,-6.8313,-6.8733,-6.8741,-6.8748,0,0,0,0,0,0,-6.8073,-6.8094,-6.826,-6.8177,-6.8196,-6.8185,-6.8238,-6.8233,-6.8262,-6.8259,-6.8256,-6.8233,-6.8263,-6.8278,-6.8401,-6.849,-6.8312,-6.832,-6.8725,-6.8736,-6.8744,-6.8892,0,0,0,0,0,0,-6.8067,-6.8093,-6.8158,-6.8179,-6.8201,-6.8371,-6.8244,-6.8238,-6.8277,-6.8264,-6.8289,-6.8287,-6.826,-6.8389,-6.8409,-6.8499,-6.8326,-6.8717,-6.873,-6.8741,-6.8879,-6.8905,-6.8928,0,0,0,0,0,-6.8059,-6.8196,-6.8162,-6.8184,-6.8282,-6.8377,-6.8389,-6.8355,-6.8285,-6.8349,-6.8348,-6.8287,-6.8479,-6.8403,-6.8424,-6.8518,-6.8711,-6.8726,-6.874,-6.8867,-6.89,-6.8927,0,0,0,0,0,0,-6.8183,-6.8197,-6.816,-6.8308,-6.8343,-6.8357,-6.8437,-6.8391,-6.8445,-6.843,-6.8385,-6.8392,-6.8524,-6.8534,-6.8449,-6.8684,-6.8583,-6.8602,-6.8672,-6.8703,-6.8727,-6.872,-6.8333,0,0,0,0,0,-6.8229,-6.8306,-6.8314,-6.8444,-6.8463,-6.8448,-6.8488,-6.846,-6.8493,-6.8506,-6.8514,-6.8547,-6.8615,-6.866,-6.8722,-6.8881,-6.8884,-6.8956,-6.8981,-6.9001,-6.9017,-6.9101,-6.9133,-6.8796,-6.8796,-6.8795,0,0,-6.8322,-6.8339,-6.839,-6.847,-6.8492,-6.8572,-6.8461,-6.855,-6.8608,-6.8519,-6.8635,-6.8643,-6.8677,-6.8819,-6.8882,-6.8831,-6.9112,-6.902,-6.9036,-6.9041,-6.912,-6.9152,-6.918,-6.8806,-6.8804,-6.8802,0,0,-6.8531,-6.8554,-6.8664,-6.8691,-6.8728,-6.8717,-6.8745,-6.8767,-6.8769,-6.8886,-6.8821,-6.889,-6.9008,-6.9035,-6.9064,-6.9289,-6.9234,-6.9311,-6.9438,-6.952,-6.9547,-6.957,-6.9648,-6.9677,-6.9328,-6.9328,-6.9329,0,-6.8641,-6.876,-6.8726,-6.8821,-6.8857,-6.8784,-6.8895,-6.8922,-6.8977,-6.9003,-6.8947,-6.9094,-6.9112,-6.9259,-6.9314,-6.9341,-6.9369,-6.9305,-6.9546,-6.9569,-6.959,-6.9664,-6.9694,-6.9337,-6.9336,-6.9335,-6.9335,0,-6.8893,-6.8977,-6.9062,-6.9119,-6.9166,-6.9268,-6.9249,-6.93,-6.927,-6.9266,-6.9386,-6.9406,-6.947,-6.9504,-6.9474,-6.9648,-6.9615,-6.9554,-6.945,-6.9632,-6.97,-6.9729,-6.935,-6.9347,-6.9344,-6.9342,0,0,-6.9178,-6.9219,-6.925,-6.9275,-6.9313,-6.9376,-6.9477,-6.9542,-6.9586,-6.9628,-6.9709,-6.9813,-6.9757,-6.979,-6.9764,-6.9837,-7.0012,-6.9766,-6.9766,-6.9809,-7.0202,-7.0245,-7.0278,-6.9978,-6.9983,-6.9987,-7.0198,0,-6.9385,-6.9558,-6.9532,-6.9698,-6.9774,-6.9708,-6.9794,-6.9827,-6.9827,-6.9891,-6.989,-6.9963,-6.9885,-6.9905,-6.9975,-6.9976,-7.0089,-6.9961,-7.005,-7.0054,-7.004,-7.0314,-7.036,-7.0557,-7.0225,-7.0229,-7.0233,0,-6.9648,-6.9702,-6.9876,-6.9903,-6.9934,-7.0013,-7.0071,-7.0134,-7.017,-7.0165,-7.0205,-7.0165,-7.0264,-7.0164,-7.0299,-7.0212,-7.0248,-7.0255,-7.0261,-7.0265,-7.0151,-7.0322,-7.062,-7.0648,-7.0275,-7.0272,-7.0269,0,-6.9836,-6.9952,-7.0071,-7.0095,-7.013,-7.0187,-7.0204,-7.0234,-7.0276,-7.0328,-7.0354,-7.0416,-7.0449,-7.0498,-7.0477,-7.0406,-7.0616,-7.0513,-7.0612,-7.0613,-7.0655,-7.0652,-7.0959,-7.0686,-7.0685,-7.0685,-7.0684,0,-7.0067,-7.0175,-7.0156,-7.0228,-7.0348,-7.0318,-7.0437,-7.0446,-7.0475,-7.0547,-7.0495,-7.0564,-7.0534,-7.0601,-7.0586,-7.0699,-7.0715,-7.0713,-7.0706,-7.0715,-7.0715,-7.0735,-7.0719,-7.0693,-7.0691,-7.0689,-7.0688,0,-7.0294,-7.0286,-7.041,-7.0435,-7.0444,-7.0531,-7.0552,-7.062,-7.0618,-7.0711,-7.0731,-7.0726,-7.0803,-7.0788,-7.0873,-7.0862,-7.1004,-7.0982,-7.0992,-7.0985,-7.1084,-7.1074,-7.1411,-7.1453,-7.1156,-7.1159,-7.1161,0,-7.044,-7.0522,-7.0557,-7.0603,-7.0625,-7.0699,-7.0742,-7.0717,-7.0764,-7.0813,-7.0875,-7.0948,-7.1004,-7.113,-7.1133,-7.1198,-7.1176,-7.129,-7.1184,-7.1191,-7.1174,-7.1167,-7.1175,-7.1309,-7.1312,-7.1315,-7.1317,0,-7.0699,-7.0692,-7.0756,-7.0821,-7.0874,-7.0922,-7.0966,-7.1006,-7.0985,-7.1041,-7.1119,-7.1164,-7.1251,-7.1323,-7.1384,-7.1401,-7.1356,-7.1352,-7.1377,-7.1385,-7.1385,-7.1384,-7.1045,-7.1342,-7.134,-7.1338,-7.1337,-7.1336,-7.0888,-7.0958,-7.0994,-7.1067,-7.1099,-7.1141,-7.1206,-7.1214,-7.128,-7.1349,-7.1332,-7.1421,-7.1456,-7.1533,-7.1558,-7.1627,-7.1584,-7.1622,-7.163,-7.1639,-7.165,-7.1379,-7.1638,-7.1637,-7.1637,-7.1636,-7.1635,0,-7.1142,-7.1163,-7.1231,-7.1295,-7.1354,-7.131,-7.1356,-7.1407,-7.1487,-7.1525,-7.1583,-7.1674,-7.1745,-7.1756,-7.1823,-7.1876,-7.1857,-7.1894,-7.1888,-7.1892,-7.1686,-7.1655,-7.1908,-7.1908,-7.1908,-7.1908,-7.1908,-7.1908,-7.128,-7.1396,-7.1394,-7.1525,-7.1544,-7.1632,-7.1663,-7.1702,-7.1732,-7.1836,-7.1896,-7.1904,-7.1931,-7.2,-7.2063,-7.2064,-7.209,-7.2135,-7.2128,-7.1934,-7.1907,-7.188,-7.1851,-7.2142,-7.2142,-7.2328,-7.233,-7.2331]},{"header":{"parameterUnit":"m.s-1","parameterCategory":1,"la1":30.2991,"la2":30.254,"lo1":-89.0895,"lo2":-89.0444,"dy":0.0017,"dx":0.0017,"nx":28,"ny":28,"refTime":"2023-10-24T21:00:00:Z","depth":0,"parameterNumber":3,"parameterNumberName":"V-component_of_WINDS"},"data":[0,0,0,0,0,0,0,0,0,0,0,0,0,0,0,0,0,0,0,0,0,0,0,0,0,0,0,0,0,0,0,0,0,0,0,0,0,0,0,0,0,0,0,0,0,0,0,0,0,0,0,0,0,0,0,0,0,0,2.1076,2.1076,0,2.1102,2.1102,2.1102,2.1083,2.1082,2.1081,2.108,2.1104,2.1106,2.1107,0,0,0,0,0,0,0,0,0,0,0,0,0,2.1011,2.1012,2.1076,2.1076,2.1077,2.1102,2.1102,2.1102,2.1083,2.1082,2.1081,2.108,2.1104,2.1106,2.1107,0,0,0,0,0,0,0,0,0,0,0,0,0,2.1038,2.1013,2.1076,2.107,2.107,2.1101,2.1102,2.1102,2.1083,2.1082,2.1081,2.108,2.1103,2.1105,2.1108,2.1146,0,0,2.1114,2.1115,0,0,0,0,0,0,0,0,2.1037,2.104,2.1071,2.1071,2.107,2.1088,2.1088,2.1117,2.1083,2.1078,2.108,2.1079,2.11,2.1102,2.111,2.1147,2.1148,2.1114,2.1115,2.1116,2.1117,0,0,0,0,0,0,0,2.1035,2.1039,2.1086,2.1071,2.1071,2.1066,2.1069,2.1093,2.1095,2.1078,2.1077,2.1081,2.1099,2.1108,2.111,2.1148,2.1114,2.1116,2.1117,2.1118,2.122,2.1222,0,0,0,0,0,0,2.1033,2.1038,2.1085,2.1087,2.105,2.1069,2.1071,2.1083,2.1095,2.1096,2.1082,2.108,2.1104,2.1107,2.1111,2.1157,2.1116,2.1118,2.112,2.1219,2.1221,2.1222,0,0,0,0,0,0,2.1032,2.1038,2.1084,2.1062,2.1068,2.1071,2.1085,2.1085,2.1093,2.1098,2.1098,2.1089,2.1104,2.1108,2.1138,2.1158,2.1119,2.1121,2.1217,2.1219,2.1221,2.125,0,0,0,0,0,0,2.103,2.1038,2.1052,2.1063,2.1069,2.1111,2.1086,2.1086,2.1097,2.1094,2.1105,2.1106,2.1103,2.1135,2.114,2.116,2.1123,2.1215,2.1218,2.1221,2.1247,2.1253,2.1258,0,0,0,0,0,2.1028,2.1058,2.1053,2.1058,2.1087,2.1112,2.1116,2.1113,2.1098,2.1113,2.1117,2.1105,2.1155,2.1138,2.1144,2.1165,2.1214,2.1217,2.1221,2.1245,2.1252,2.1258,0,0,0,0,0,0,2.1048,2.1059,2.1053,2.1087,2.1099,2.1109,2.1127,2.112,2.1135,2.1132,2.1127,2.113,2.1162,2.1166,2.1147,2.1204,2.1182,2.1187,2.1199,2.1206,2.1211,2.1209,2.1125,0,0,0,0,0,2.1056,2.1076,2.1085,2.1114,2.1121,2.1123,2.1134,2.1131,2.1142,2.1147,2.1152,2.1164,2.1182,2.1194,2.1211,2.1249,2.1251,2.1266,2.1271,2.1276,2.1279,2.1301,2.1308,2.1233,2.1233,2.1233,0,0,2.1073,2.1082,2.1095,2.1118,2.1127,2.1148,2.1127,2.1149,2.1165,2.115,2.1179,2.1184,2.1197,2.1231,2.1246,2.1236,2.1301,2.128,2.1283,2.1285,2.1305,2.1312,2.1319,2.1235,2.1235,2.1234,0,0,2.1115,2.1124,2.115,2.116,2.1175,2.1176,2.1183,2.1195,2.1198,2.1227,2.1217,2.1236,2.1267,2.1277,2.1286,2.1336,2.1327,2.1342,2.1369,2.139,2.1396,2.1401,2.142,2.1427,2.1346,2.1346,2.1346,0,2.1135,2.1166,2.1164,2.1189,2.12,2.1189,2.1217,2.1226,2.1245,2.1253,2.1241,2.1282,2.129,2.1327,2.134,2.1347,2.1355,2.134,2.1396,2.1401,2.1406,2.1423,2.143,2.1348,2.1347,2.1347,2.1347,0,2.119,2.1212,2.1232,2.1252,2.1266,2.1291,2.1294,2.1308,2.1305,2.1308,2.1339,2.1349,2.1368,2.1377,2.1373,2.1415,2.1408,2.1396,2.1375,2.1415,2.1431,2.1438,2.135,2.135,2.1349,2.1349,0,0,2.1242,2.1264,2.1271,2.1282,2.1298,2.1315,2.1341,2.1362,2.1374,2.1389,2.141,2.1439,2.1429,2.144,2.1437,2.1456,2.1497,2.1442,2.1442,2.1452,2.1544,2.1553,2.1561,2.1491,2.1492,2.1493,2.1543,0,2.1286,2.1332,2.1332,2.1374,2.1396,2.1388,2.1411,2.1424,2.1428,2.1447,2.1452,2.1473,2.1457,2.1464,2.1482,2.1488,2.1515,2.1484,2.1511,2.1512,2.1508,2.1569,2.1578,2.1625,2.155,2.1551,2.1552,0,2.1342,2.136,2.1405,2.1421,2.143,2.1451,2.1471,2.1489,2.1504,2.1506,2.152,2.1516,2.1543,2.1522,2.1559,2.1538,2.155,2.1554,2.1556,2.1558,2.1534,2.1573,2.164,2.1647,2.1562,2.1561,2.156,0,2.1377,2.1413,2.1445,2.1454,2.1473,2.1488,2.1496,2.151,2.1524,2.1542,2.155,2.1571,2.1582,2.1598,2.1599,2.1584,2.1638,2.1616,2.164,2.1641,2.1651,2.165,2.1721,2.1659,2.1659,2.1659,2.1659,0,2.1426,2.1453,2.1461,2.1481,2.1512,2.1513,2.1544,2.1552,2.1565,2.1586,2.158,2.16,2.1601,2.1622,2.1623,2.1655,2.166,2.1662,2.1662,2.1663,2.1663,2.167,2.1667,2.1661,2.166,2.166,2.166,0,2.1469,2.1475,2.151,2.1527,2.1532,2.1554,2.1568,2.1587,2.1593,2.162,2.1626,2.1634,2.1658,2.1662,2.169,2.1691,2.1729,2.1726,2.1724,2.1724,2.1748,2.1746,2.1825,2.1836,2.1767,2.1768,2.1769,0,2.1499,2.1521,2.1541,2.1556,2.1566,2.1589,2.1603,2.1606,2.1621,2.1642,2.1658,2.1683,2.1702,2.1741,2.1749,2.1771,2.1768,2.1795,2.1771,2.1772,2.1769,2.1768,2.1771,2.1799,2.1799,2.18,2.1801,0,2.1553,2.1556,2.1577,2.1601,2.1619,2.1637,2.1654,2.1666,2.1671,2.1688,2.1714,2.1729,2.1759,2.1784,2.1806,2.1815,2.1809,2.1808,2.1815,2.1816,2.1814,2.1816,2.1737,2.1806,2.1805,2.1805,2.1805,2.1805,2.1591,2.1611,2.1629,2.1654,2.1668,2.1684,2.1704,2.1713,2.1735,2.176,2.1761,2.1789,2.1806,2.1835,2.1846,2.1868,2.186,2.1869,2.1872,2.1874,2.1877,2.1811,2.1872,2.1872,2.1872,2.1872,2.1872,0,2.1645,2.1657,2.168,2.1705,2.1725,2.172,2.1739,2.1756,2.1782,2.1798,2.1819,2.1849,2.1873,2.1885,2.1908,2.1924,2.1922,2.1931,2.1929,2.1932,2.1883,2.1875,2.1932,2.1932,2.1932,2.1932,2.1932,2.1932,2.1675,2.1709,2.1715,2.1756,2.1767,2.1796,2.1808,2.1824,2.1838,2.1873,2.1893,2.1901,2.1916,2.1942,2.1964,2.1967,2.1976,2.1985,2.1987,2.1941,2.1935,2.1929,2.1921,2.1987,2.1987,2.2034,2.2034,2.2034]}]]